www.pogodaiklimat.ru

Погода и климат >> Архив погоды >> Россия >> Камчатский край >> Чемурнаут


ПОГОДА в Чемурнауте

  • Прогноз погоды в Чемурнауте
  • Монитор погоды в Чемурнауте
  • Климат города

АРХИВ ПОГОДЫ в Чемурнауте

Время (UTC), дата Ветер
(напр.,м/с)
 
Видим.   Явления Облачность Т
(С)
Тd
(С)
f
(%)
Тe
(С)
Тes
(С)
Комфортность P
(гПа)
Po
(гПа)
Тmin
(С)
Tmax
(С)
R
(мм)
R24
(мм)
S
(см)
09 18.04 СВ 3 20 км 9/9 600 м
[Sc]
+1.0 -4.3 68 -3 -3 1015.5 1013.7 +2.0
12 18.04 В 3 20 км 9/9 600 м
[Sc]
+0.8 -4.5 68 -3 -3 1016.5 1014.7
15 18.04 В 3 20 км 9/9 600 м
[Sc]
+0.8 -4.5 68 -3 -3 1016.5 1014.7
18 18.04 В 4 4000 м слабый ливневой снег 10/10 300 м
[Cb cap]
+0.4 -1.3 88 -5 -5 1018.3 1016.5
21 18.04 В 4 20 км {ливн. осадки} 9/9 300 м
[Sc diur, vesp]
+0.1 -2.3 84 -5 -5 1019.3 1017.5 0.0 0.8 16
00 19.04 В 2 4000 м слабый ливневой дождь со снегом 10/10 300 м
[Cb cap]
+1.1 -0.3 90 -2 -2 1020.1 1018.3
03 19.04 В 2 4000 м слабый ливневой дождь со снегом 10/10 300 м
[Cb cap]
+1.9 0.0 87 -1 -1 1020.2 1018.4
06 19.04 ЮВ 6 20 км {ливн. осадки} 9/9 300 м
[Sc diur, vesp]
+2.0 -0.8 82 -4 -4 1020.3 1018.5
09 19.04 ЮВ 6 4000 м слабый ливневой дождь со снегом 10/10 300 м
[Cb cap]
+1.3 -0.4 88 -5 -5 1020.7 1018.9 +2.3 2
12 19.04 ЮВ 4 20 км {ливн. осадки} 9/9 300 м
[Sc diur, vesp]
+1.8 -1.0 82 -3 -3 1021.4 1019.6
15 19.04 ЮВ 6 20 км 9/9 300 м
[Sc]
+1.6 -1.5 80 -4 -4 1021.2 1019.4
18 19.04 ЮЗ 5 20 км 10/10 300 м
[St]
+1.3 -1.0 85 -4 -4 1020.1 1019.3
21 19.04 ЮВ 5 20 км 10/10 300 м
[St]
+1.6 -0.9 83 -4 -4 1021.8 1020.0 +1.0 0.0 11
00 20.04 ЮВ 6 20 км 10/10 300 м
[St]
+2.1 -1.0 80 -4 -4 1022.1 1020.3
03 20.04 ЮВ 7 20 км 10/10 300 м
[St]
+1.9 -0.9 82 -5 -5 1021.5 1019.7
06 20.04 ЮВ 6 20 км 10/10 300 м
[St]
+1.6 -1.2 82 -5 -5 1020.2 1018.4
09 20.04 ЮВ 5 20 км 10/10 300 м
[St]
+1.3 -1.3 83 -4 -4 1021.9 1020.1 +2.3
12 20.04 Ю 5 20 км 9/9 300 м
[St]
+1.2 -1.7 81 -4 -4 1021.8 1020.0
15 20.04 ЮВ 7 20 км 9/9 300 м
[St]
+1.3 -1.6 81 -5 -5 1021.6 1019.8
18 20.04 Ю 3 20 км 9/9 300 м
[St]
+1.3 -1.6 81 -3 -3 1021.8 1020.0
21 20.04 ЮВ 1 20 км 10/10 300 м
[St]
+2.0 -1.1 80 0 0 1021.7 1019.9 +0.7 8
00 21.04 С 1 20 км 9/9 600 м
[Sc]
+1.2 -2.6 76 -0 +1 1021.7 1019.9
03 21.04 СЗ 2 20 км 9/9 300 м
[St]
+1.3 -1.9 79 -2 -1 1020.7 1018.9
06 21.04 ЮВ 2 20 км 9/9 300 м
[St]
+1.4 -1.4 82 -2 -2 1019.9 1028.1
09 21.04 Ю 2 20 км 9/9 300 м
[St]
+1.6 -1.2 82 -2 -2 1020.1 1018.3 +2.2
12 21.04 Ю 2 20 км 8/8 600 м
[Sc]
+1.2 -1.7 81 -2 -2 1020.0 1018.2
15 21.04 Ю 1 20 км 8/8 600 м
[Sc]
+0.5 -2.5 80 -1 -1 1019.9 1018.1
18 21.04 20 км н/о +0.1 -3.8 75 -2 -2 1020.0 1018.2
21 21.04 С 2 20 км 4/4 600 м
[Sc]
+1.1 -3.1 74 -2 0 1019.9 1018.1 -0.7 5
00 22.04 СЗ 2 50 км 3/3 1000 м
[Sc]
+0.4 -2.9 78 -3 +4 1019.7 1017.9
03 22.04 СЗ 1 50 км ясно +0.2 -2.8 80 -2 +9 1019.1 1017.3
06 22.04 СЗ 1 50 км ясно +0.7 -2.2 81 -1 +2 1019.0 1017.2
09 22.04 З 2 50 км 3/0
[Cs]
-0.8 -4.3 77 -4 -4 1019.1 1017.3 +1.3
12 22.04 Ю 1 20 км 3/0
[Cs]
-2.1 -4.9 81 -4 -4 1018.7 1016.9
15 22.04 ЮВ 1 20 км 3/0
[Cs]
-3.0 -5.4 83 -5 -5 1018.0 1016.2
18 22.04 СВ 2 20 км 3/0
[Cs]
-2.2 -4.7 83 -6 -6 1018.3 1016.5
21 22.04 СВ 4 50 км 3/0
[Cs]
-1.9 -6.3 72 -8 -5 1019.4 1017.6 -3.4 4
00 23.04 С 5 50 км 3/0
[Cs]
-0.1 -5.1 69 -6 -1 1019.8 1018.0
03 23.04 С 4 50 км 4/0
[Cs]
+0.4 -3.4 76 -5 +1 1020.0 1018.2
06 23.04 С 3 50 км 6/0
[Cs]
+0.2 -2.8 80 -4 -2 1020.8 1019.0
09 23.04 СЗ 2 50 км 6/0
[Cs]
-0.6 -3.4 81 -4 -4 1020.7 1018.9 +1.3
12 23.04 З 1 20 км 6/0
[Cs]
-1.7 -4.1 84 -4 -4 1020.8 1019.0
18 23.04 В 2 50 км 4/0
[Cs]
-3.8 -5.6 87 -8 -8 1020.6 1018.8
21 23.04 С 4 50 км 3/0
[Ci fib]
-1.8 -5.2 78 -8 -5 1020.6 1018.8 -4.1 2
00 24.04 С 5 50 км 3/0
[Ci fib]
-0.7 -4.5 75 -7 -2 1019.7 1017.9
03 24.04 С 5 50 км 3/0
[Ci fib]
+0.3 -4.0 73 -5 -1 1018.4 1016.6
06 24.04 С 5 50 км 4/0
[As trans Ci fib]
+0.6 -3.0 77 -5 -4 1017.3 1015.5
09 24.04 С 5 20 км 9/9 600 м
[Sc]
+0.3 -2.9 79 -6 -6 1016.6 1014.8 +0.7
12 24.04 С 5 20 км 6/6 600 м
[Sc]
0.0 -3.3 78 -6 -6 1015.7 1013.9
15 24.04 СЗ 5 20 км 3/3 600 м
[Sc]
-1.3 -4.4 79 -8 -8 1014.8 1013.0
18 24.04 С 5 20 км 3/0
[Cs]
-1.0 -4.6 77 -7 -7 1014.5 1012.7
21 24.04 С 4 50 км 3/0
[Cs]
-0.5 -3.9 78 -6 -3 1014.2 1012.4 -2.1 2
00 25.04 СЗ 6 50 км 3/0
[Cs]
+0.2 -3.5 76 -6 -2 1013.7 1011.9
03 25.04 СЗ 4 50 км 3/0
[Ac trans]
+0.7 -2.9 77 -4 +1 1013.0 1011.2

 

Местоположение метеостанции Чемурнаут (Камчатский край, Россия): широта 60.73 долгота 163.00 высота над уровнем моря 14 м.

В архиве по умолчанию представлена погода в Чемурнауте за последнюю неделю. Архивные данные за месяц целиком и за предыдущие месяцы, начиная с января 2011 года, Вы можете получить, выбрав интересующий диапазон дат из раскрывающегося списка и нажав кнопку "Ввод!".

Внимание! Время в таблицах - всемирное. Для получения местного времени необходимо прибавить поправку, которая в Чемурнауте равна 12 ч.

Смотрите также архив погоды в соседних городах и на ближайших метеорологических станциях:

Погода в Оссоре (Камчатский край, Россия) (167 км)
Погода в Тиличиках (Камчатский край, Россия) (167 км)
Погода в Эвенске (Магаданская область, Россия) (242 км)
Погода в Палане (Камчатский край, Россия) (252 км)
Погода в Каменском (Камчатский край, Россия) (258 км)
Погода в Усть-Воямполке (Камчатский край, Россия) (331 км)
Погода на Мысе Озерном (Камчатский край, Россия) (343 км)
Погода в Апуке (Камчатский край, Россия) (362 км)
Погода в Лабазной (Магаданская область, Россия) (370 км)
Погода в Слаутном (Камчатский край, Россия) (372 км)

Пояснения к столбцам:

Ветер - указаны скорость ветра в м/с - средняя за 10 мин, порывы в срок и между сроками (в фигурных скобках) и направление, откуда дует ветер: С - северный, СВ - северо-восточный, В - восточный, ЮВ - юго-восточный, Ю - южный, ЮЗ - юго-западный, З - западный, СЗ - северо-западный.
Видимость - горизонтальная дальность видимости в метрах или километрах. При видимости от 1 до 10 км при отсутствии осадков обычно наблюдается дымка, при ухудшении видимости до 1 км и менее - туман. В сухую погоду видимость может ухудшаться дымом, пылью или мглою.
Явления - указаны атмосферные явления, наблюдавшиеся в срок или в последний час перед сроком; фигурными скобками обозначены явления, наблюдавшиеся между сроками (за 1-3 часа до срока); квадратными скобками обозначены град или гололедные отложения с указанием их диаметра в мм.
Облачность - указаны через наклонную черту общая и нижняя облачность в баллах и высота нижней границы облаков в метрах; квадратными скобками обозначены формы облаков: Ci - перистые, Cs - перисто-слоистые, Cc - перисто-кучевые, Ac - высококучевые, As - высокослоистые, Sc - слоисто-кучевые, Ns - слоисто-дождевые, Cu - кучевые, Cb - кучево-дождевые. Подробнее классификацию облаков см. в Атласе облаков (PDF).
T - Температура воздуха - температура, измеренная на высоте 2 м над землей.
Td - Температура точки росы - температура, при понижении до которой содержащийся в воздухе водяной пар достигнет насыщения.
f - Относительная влажность воздуха - влажноcть воздуха, измеренная на высоте 2 м над землей.
Te - Эффективная температура - температура, которую ощущает одетый по сезону человек в тени. Характеристика душности погоды. При расчете учитывается влияние влажности воздуха и скорости ветра на теплоощущения человека.
Tes - Эффективная температура на солнце - температура, которую ощущает человек, с поправкой на солнечный нагрев. Характеристика знойности погоды. Зависит от высоты солнца над горизонтом, облачности и скорости ветра. Ночью, в пасмурную погоду, а также при ветре 12 м/с и более поправка равна нулю.
P - Атмосферное давление - приведенное к уровню моря атмосферное давление.
Po - Атмосферное давление - измеренное на уровне метеостанции атмосферное давление.
Tmin - Минимальная температура - минимум температуры воздуха на высоте 2 м над землей.
Tmax - Максимальная температура - максимум температуры воздуха на высоте 2 м над землей.
R - Количество осадков - Количество выпавших осадков за период времени, мм. При наведении курсора мыши на число - период времени, за который выпало указанное количество осадков.
R24 - Количество осадков - Количество выпавших осадков за 24 часа, мм.
S - Снежный покров - Высота снежного покрова, см. При наведении курсора мыши на число - состояние снежного покрова и степень покрытия местности в баллах.